Temp
75 77 77 77 76 75 75 75 75 73 73 72 72 72 71 72 72 72 73 72 73 76
74 73 72 71 71 74 73 75 74 72 70 70 70 70 70 71 71 72 72 72 73 75
75 74 73 72 70 70 71 71 70 70 70 69 70 70 70 70 72 72 73 75 72 71
74 74 73 72 72 71 71 70 69 70 69 69 69 70 69 67 67 68 70 70 69 69
72 72 70 70 71 71 70 70 69 69 68 69 69 70 68 64 67 68 67 66 65 62
63 66 67 68 68 70 69 69 68 68 67 68 67 68 65 66 66 65 63 61 59 57
61 62 63 64 66 68 69 68 66 66 64 65 66 65 63 64 61 60 60 57 55 54
58 61 62 65 66 65 64 66 65 64 63 62 63 61 55 59 60 58 55 54 54 53
61 63 63 62 62 60 59 61 60 60 60 59 59 50 51 54 56 54 53 53 55 56
60 60 60 59 58 59 57 58 57 58 56 56 54 48 48 52 54 53 53 54 57 61
56 55 56 55 55 56 56 55 56 54 55 51 49 46 47 49 52 51 53 56 58 59
53 52 53 53 51 53 54 54 52 52 50 49 48 45 46 49 50 51 54 56 60 61
51 52 50 52 51 50 49 50 49 46 46 47 46 44 45 48 48 49 51 54 56 45
49 49 50 50 47 49 47 45 44 43 44 45 45 44 44 45 48 47 46 52 55 54
MSLP
1012.84 1012.64 1012.43 1012.49 1012.67 1012.80 1012.67 1012.66 1012.74 1012.99 1012.86 1012.82 1012.53 1012.16 1011.78 1011.31 1010.70 1010.18 1009.54 1008.89 1008.47 1007.86
1012.83 1012.89 1012.87 1013.07 1013.20 1012.96 1012.90 1012.74 1012.74 1012.94 1012.69 1012.52 1012.23 1011.84 1011.48 1010.84 1010.25 1009.78 1009.21 1008.49 1007.94 1007.42
1012.30 1012.49 1012.68 1012.84 1012.98 1013.08 1013.08 1012.98 1012.78 1012.71 1012.37 1012.10 1011.81 1011.44 1011.03 1010.31 1009.56 1009.00 1008.44 1007.68 1007.04 1006.97
1012.22 1012.45 1012.57 1012.35 1012.20 1012.41 1012.58 1012.66 1012.54 1012.23 1011.91 1011.61 1011.21 1010.83 1010.40 1010.07 1009.58 1008.76 1008.06 1007.82 1007.45 1007.29
1012.04 1012.25 1012.42 1012.34 1011.88 1011.82 1011.99 1012.35 1012.23 1011.88 1011.51 1011.11 1010.70 1010.26 1009.91 1009.72 1009.25 1008.72 1008.20 1008.06 1008.13 1008.03
1012.89 1011.99 1012.04 1012.28 1011.85 1011.51 1011.77 1011.86 1011.77 1011.51 1011.14 1010.63 1010.29 1009.85 1009.76 1009.41 1009.10 1008.99 1008.72 1008.85 1008.84 1008.82
1012.29 1012.38 1012.16 1011.92 1011.62 1011.43 1011.22 1011.17 1011.43 1011.31 1011.26 1010.84 1010.31 1009.92 1009.91 1009.52 1009.43 1009.27 1009.24 1009.64 1009.58 1009.39
1012.76 1012.04 1011.59 1011.38 1011.17 1011.22 1011.22 1011.04 1011.20 1011.14 1011.04 1010.89 1010.38 1010.26 1010.34 1009.84 1009.29 1009.50 1009.89 1010.03 1010.02 1010.16
1011.67 1011.29 1011.09 1011.29 1011.37 1011.55 1011.43 1011.33 1011.38 1011.18 1010.93 1010.77 1010.34 1010.42 1010.25 1009.92 1009.82 1009.94 1010.19 1010.10 1010.07 1010.16
1011.33 1011.26 1011.29 1011.36 1011.45 1011.33 1011.25 1011.18 1011.02 1010.90 1010.95 1010.64 1010.63 1010.72 1010.47 1010.00 1010.48 1010.18 1010.25 1010.18 1009.91 1009.70
1011.28 1011.27 1011.39 1011.48 1011.37 1011.10 1011.02 1010.85 1010.74 1010.77 1010.68 1010.95 1010.99 1011.09 1010.75 1010.68 1010.69 1010.53 1010.44 1010.34 1010.14 1010.25
1011.44 1011.44 1011.40 1011.39 1011.32 1010.94 1010.76 1010.64 1010.65 1010.79 1011.02 1011.21 1011.44 1011.47 1011.19 1011.16 1011.04 1010.96 1010.82 1010.87 1010.89 1010.94
1011.35 1011.28 1011.41 1011.29 1011.39 1011.38 1011.16 1010.82 1011.10 1011.36 1011.63 1011.77 1012.06 1011.89 1011.88 1011.75 1011.55 1011.62 1011.80 1011.95 1012.18 1012.53
1011.41 1011.41 1011.25 1011.16 1011.53 1011.35 1011.38 1011.54 1011.71 1012.04 1012.34 1012.57 1012.57 1012.81 1012.79 1012.42 1012.56 1012.77 1012.76 1012.80 1012.94 1013.33
Wind_Speed
4 6 5 5 5 6 7 8 9 11 12 14 15 14 13 13 13 13 13 15 14 13
7 7 7 8 7 7 8 9 10 13 13 14 16 15 14 13 13 14 13 14 14 13
9 7 8 8 9 10 11 12 12 14 14 14 15 15 13 13 13 13 12 12 12 10
10 9 10 10 9 10 11 12 14 14 14 14 14 14 12 12 14 15 14 14 11 13
9 10 11 12 12 10 12 12 14 14 14 14 14 14 12 12 11 15 15 11 11 11
13 7 10 13 11 12 13 13 13 14 14 14 13 13 11 11 10 13 7 8 7 8
10 9 10 10 13 13 14 12 13 12 15 14 15 11 11 10 7 4 7 6 8 8
15 11 10 12 14 12 12 11 13 14 14 13 10 6 8 9 5 5 7 6 8 10
13 12 13 12 12 10 10 14 12 13 11 15 8 7 9 9 5 7 5 4 6 9
15 14 13 12 11 13 13 13 11 9 10 9 4 4 1 7 4 4 3 3 3 8
11 10 11 12 12 13 9 9 8 7 6 2 2 1 7 8 6 5 4 1 7 9
11 10 11 10 9 6 6 7 5 1 3 4 5 6 7 7 5 4 4 10 10 10
10 8 9 11 6 6 4 1 6 8 7 11 8 12 11 7 5 8 8 9 13 17
7 6 7 1 4 2 5 7 8 9 9 10 11 13 15 16 10 9 10 9 9 8
Wind_Direction
272 271 285 268 313 300 312 304 321 301 302 304 302 300 297 293 293 294 286 285 286 288
264 273 295 302 291 284 292 293 303 303 297 297 296 295 294 287 290 287 283 279 275 266
254 256 268 270 273 282 284 285 294 294 293 294 293 291 288 287 289 288 287 281 283 303
267 278 281 273 271 284 291 293 292 294 297 293 290 289 287 288 284 278 289 291 303 317
262 276 282 282 279 284 287 290 292 292 293 289 293 289 297 293 293 299 299 340 327 313
284 301 292 290 290 289 278 283 290 297 294 295 296 290 297 296 316 316 349 337 351 353
310 281 279 291 288 279 272 280 299 299 312 299 294 322 310 310 303 317 48 49 42 19
288 277 284 282 289 302 309 298 300 299 288 298 305 317 318 303 278 96 94 83 74 57
277 292 290 287 280 292 295 293 295 289 293 290 296 348 312 277 122 122 121 120 123 104
292 288 283 288 291 287 282 286 277 277 281 304 346 327 121 96 125 113 117 177 175 113
285 289 288 280 275 270 274 274 265 276 297 52 38 89 88 85 86 82 78 82 76 91
284 278 274 270 294 292 298 279 300 105 89 106 85 74 70 89 81 60 62 56 57 93
270 263 259 271 292 309 301 13 96 73 69 81 81 63 58 77 80 83 76 71 68 45
267 266 262 261 253 340 85 88 89 88 78 80 80 67 64 60 64 62 50 49 66 59